Tracking 31023 objects as of 20-Jul-2025
HD Live streaming from Space Station
objects crossing your sky now

STARLINK-11192

Track STARLINK-11192 now!
10-day predictions
STARLINK-11192 is classified as:


NORAD ID: 60308
Int'l Code: 2024-133H
Perigee: 366.2 km
Apogee: 367.6 km
Inclination: 53.2 °
Period: 91.7 minutes
Semi major axis: 6737 km
RCS: Unknown
Launch date: July 28, 2024
Source: United States (US)
Launch site: AIR FORCE WESTERN TEST RANGE (AFWTR)
Your satellite tracking list
Your tracking list is empty




NASA's NSSDC Master Catalog

Two Line Element Set (TLE):
1 60308U 24133H   25200.45537225 -.00001080  00000-0 -40548-5 0  9999
2 60308  53.1581 215.8622 0001032  81.6840 278.4295 15.69712211 57151
Source of the keplerian elements: AFSPC